Location: Newark
(34.0131°N, 4.3314°W)
Time: 08:29:13
(UTC+00:00)

N. Korean satellite - Visible Passes

Search period start: 22 October 2019 00:00
Search period end: 01 November 2019 00:00
Orbit: 455 x 508 km, 97.2° (Epoch: 21 October)

Date Brightness Start Highest point End Pass type
(mag) Time Alt. Az. Time Alt. Az. Time Alt. Az.
22 Oct 9.0 05:35:25 10° NE 05:38:36 28° E 05:41:48 10° SSE visible
23 Oct 10.2 05:11:22 10° ENE 05:13:11 13° E 05:15:01 10° SE visible
24 Oct 10.0 18:24:18 10° SW 18:26:17 15° W 18:28:18 10° WNW visible
25 Oct 7.7 05:52:30 10° NNE 05:56:06 50° E 05:59:42 10° S visible
25 Oct 8.6 17:57:45 10° SSW 18:00:52 33° W 18:04:01 10° NNW visible
26 Oct 9.4 05:27:46 10° NE 05:30:44 23° E 05:33:41 10° SSE visible
27 Oct 10.5 05:04:31 10° E 05:05:17 10° E 05:06:03 10° ESE visible
28 Oct 9.7 18:15:50 10° SW 18:18:20 19° W 18:20:52 10° NW visible
29 Oct 8.3 05:44:43 10° NNE 05:48:13 39° E 05:51:42 10° S visible
29 Oct 8.0 17:49:39 10° S 17:52:55 43° W 17:56:16 10° NNW visible
30 Oct 9.8 05:20:11 10° NE 05:22:49 18° E 05:25:26 10° SE visible
31 Oct 10.4 18:34:54 10° WSW 18:35:50 11° W 18:36:46 10° WNW visible
